YAOGAN-29

Last updated on Thu Oct 30 2025 00:02:16 GMT+0000 (Coordinated Universal Time)

1 41038U 15069A 25302.55342669 .00000629 00000+0 84520-4 0 9998 2 41038 98.0270 325.5725 0002766 72.4708 287.6807 14.82808203536448
UTC large
Height (km)
Speed (km/s)
/
Latitude / Longitude
Inclination (degrees)
Orbital Period (minutes)
Azimuth
Elevation
Range (km)
Doppler Factor

Next 0 passes for location: London (51.5072 / 0.1276)

Sorry there are no passes over London.